{"data":{"norad_id":66851,"intl_designator":"2025-281D","name":"STARLINK-36094","alt_names":[],"object_type":"PAYLOAD","status":"ACTIVE","operator":null,"country":"US","launch_date":"2025-12-02","launch_site_code":"AFETR","launch_vehicle":null,"mission":null,"orbit_class":"UNKNOWN","rcs_meters":null,"size_class":null,"mass_kg":null,"dimensions":null,"purposes":["comms"],"wikipedia_slug":null,"has_3d_model":false,"image_url":null,"decayed_at":null,"tle_current":{"epoch":"2026-09-20T10:57:49.765536Z","epoch_age_seconds":88080,"freshness":"FRESH","line1":"1 66851U 25281D   26263.45682599  .00006140  00000+0  23237-3 0  9991","line2":"2 66851  43.0036 323.4480 0001141 272.8608  87.2113 15.27591804 45977","mean_motion":15.27591804,"eccentricity":0.0001141,"inclination_deg":43.0036,"raan_deg":323.448,"arg_perigee_deg":272.8608,"mean_anomaly_deg":87.2113,"bstar":0.00023237,"rev_number":4597,"period_min":94.266020296087,"perigee_km":482.23089354412,"apogee_km":483.79660814546,"semimajor_km":6861.1507508448,"source":"CELESTRAK","updated_at":"2026-09-21T09:00:36.026065Z"}}}